Wave height 1.3 meters (4 feet), 8 second period

Water temperature 13.8° C

Last reported at 2014-Apr-16 09:09 UTC.
Time now 2014-Apr-16 10:31 UTC

Location: N 34°12' W 119°24'.
View on Google Maps.

See reports from other nearby stations

Tides Stations Pressure Air Temp Water Temp Dewpoint Dewpoint depression Visibility Wind Speed Wind Dir Waves Ship positions

  
sailing weather and tide predictions

Current Weather: station 46217

date/time (UTC)wind fromknots sea level pressurealtimeterstation pressurevisibilityair tempwater tempwave heightnotes
2014-Apr-16 09:09 13.8 1.3
2014-Apr-16 07:09 13.8 1.3
2014-Apr-16 06:39 13.8 1.3
2014-Apr-16 06:09 13.8 1.2
2014-Apr-16 04:09 13.9 1.3
2014-Apr-16 03:09 13.8 1.3
2014-Apr-16 02:09 13.7 1.1
2014-Apr-16 01:09 13.8 1.1
2014-Apr-16 00:39 13.8 1.0
2014-Apr-16 00:09 13.8 0.9
2014-Apr-15 22:09 13.9 0.8
2014-Apr-15 21:39 13.8 0.8
2014-Apr-15 21:09 13.8 0.7
2014-Apr-15 20:09 13.8 0.7
2014-Apr-15 19:09 13.8 0.7
2014-Apr-15 18:39 13.8 0.7
2014-Apr-15 16:39 13.8 0.8
2014-Apr-15 16:09 13.8 0.7
2014-Apr-15 15:39 13.8 0.7
2014-Apr-15 15:09 13.8 0.7
2014-Apr-15 14:39 13.8 0.8
2014-Apr-15 14:09 13.8 0.8
2014-Apr-15 13:39 13.9 0.8
2014-Apr-15 13:09 13.9 0.8
2014-Apr-15 12:09 13.9 0.8
2014-Apr-15 10:09 13.9 0.8
2014-Apr-15 09:09 13.8 0.8
2014-Apr-15 08:39 13.8 0.8
2014-Apr-15 08:09 13.8 0.9
2014-Apr-15 07:39 13.7 0.9
2014-Apr-15 07:09 13.3 0.9
2014-Apr-15 06:39 13.3 0.9
2014-Apr-15 06:09 13.4 0.9
2014-Apr-15 05:39 13.5 0.9
2014-Apr-15 05:09 13.6 0.9
2014-Apr-15 04:09 13.4 0.8
2014-Apr-15 03:09 13.3 0.7
2014-Apr-15 02:09 13.3 0.7
2014-Apr-15 00:09 13.4 0.6
2014-Apr-14 23:09 13.6 0.6
2014-Apr-14 22:09 13.8 0.6
2014-Apr-14 21:39 13.8 0.6
2014-Apr-14 21:09 13.8 0.6
2014-Apr-14 19:09 14.2 0.7
2014-Apr-14 18:09 14.3 0.7
2014-Apr-14 17:09 13.8 0.7
2014-Apr-14 16:09 13.8 0.6
2014-Apr-14 15:39 13.8 0.7
2014-Apr-14 15:09 13.7 0.7
2014-Apr-14 14:09 13.7 0.7
2014-Apr-14 13:39 13.7 0.7
2014-Apr-14 13:09 13.7 0.6
2014-Apr-14 12:09 13.7 0.6
2014-Apr-14 11:39 13.7 0.6
2014-Apr-14 11:09 13.7 0.6